Location: Croydon
(51.3762°N, 0.0982°W)
Time: 08:51:25
(UTC+00:00)

Altair - Pass Details

Date: 23 November 2019
Orbit: 1502 x 1682 km, 47.2° (Epoch: 08 December)

Event Time Altitude Azimuth Distance (km) Brightness Sun altitude
Rises 06:26:58 0° 279° (W) 4,638 - -9.7°
Exits shadow 06:29:49 - 276° (W) 3,725 8.9 -9.3°
Reaches altitude 10° 06:30:01 10° 275° (W) 3,659 8.9 -9.3°
Maximum altitude 06:38:55 57° 201° (SSW) 1,751 7.9 -8.0°
Drops below altitude 10° 06:48:00 10° 126° (SE) 3,736 11.2 -6.7°
Sets 06:51:10 0° 122° (ESE) 4,742 12.5 -6.2°
